{"data":{"norad_id":81343,"epoch":"2026-05-23T22:24:54.336672Z","epoch_age_seconds":160545,"freshness":"FRESH","line1":"1 81343U          26143.93396223  .00004576  00000+0  31133-3 0  9997","line2":"2 81343  85.8733 112.5123 0008874  44.3327 315.8617 15.06042535478719","mean_motion":15.06042535,"eccentricity":0.0008874,"inclination_deg":85.8733,"raan_deg":112.5123,"arg_perigee_deg":44.3327,"mean_anomaly_deg":315.8617,"bstar":0.00031133,"rev_number":47871,"period_min":95.614829364697,"perigee_km":542.16082665385,"apogee_km":554.45388009221,"semimajor_km":6926.444353373,"source":"CELESTRAK","updated_at":"2026-05-25T13:38:09.449698Z"}}